Les articles d'ExpertMaritime.pro..


(Charente-Maritime - Poitou-Charentes)


Voir plan
Situation :

Le port de plaisance de La Palmyre est situé dans la partie occidentale de la commune des Mathes, dans le quartier balnéaire de La Palmyre, à 5 milles marins de Port-Médoc (rive gauche) et 7 milles marin du port de Royan (rive droite).

Aménagé à l'entrée de la passe de Bonne Anse, dont le cordon dunaire le protège des assauts océaniques, il est le premier port que rencontrent les plaisanciers en entrant dans l'embouchure de la Gironde.

Du fait de bancs de sable en constante évolution, il est nécessaire d'y entrer avec prudence.

En effet, la baie de Bonne Anse est un espace naturel mouvant, évoluant en permanence, au gré des tempêtes et des courants.

Depuis plusieurs années, la baie tend à se combler, et la flèche sablonneuse qui la ceinture, gonflée par de nouveaux apports de sable, s'engraisse et se rapproche sensiblement de la côte, dont elle n'est séparée que de quarante mètres à marée basse.

Une série d'épis et un dragage régulier ont cependant été mis en place afin d'éviter un envahissement du port par les sables

Pratique :

Le Port
315 places à flot
Bassin de 1m

Services :
Eau,
électricité (220 V) sur ponton,
sanitaires,
WC,
douches,
téléphone public,
treuil pour mise à l’eau et sortie des bateaux (payant).

V.H.F. 9.
Capitainerie :
Port de La Palmyre - Les Mathes - 17570 La Palmyre
Tél. : 05 46 22 44 31 - 06 75 29 29 18
capitainerie-du-port@orange.fr
Mairie : Tél. : 05 46 22 48 72
Fax : 05 46 22 49 23
mathes-palmyre@mairie17.com
Responsable du Port : Erick Garatin
Météo locale sur la zone Port de Bonne Anse
Heure (UTC) Dir.Vent Vit.Vent (nds) Force (Bft) T°min T°max P (mb) Hum.Rel.
02/05/2026 - 21:00:00 au 03/05/2026 - 00:00:00 147° (SSE) 11 4 15°C 15°C 1013 94 %
03/05/2026 - 00:00:00 au 03/05/2026 - 03:00:00 200° (SSW) 9 3 15°C 15°C 1012 94 %
03/05/2026 - 03:00:00 au 03/05/2026 - 06:00:00 265° (W) 9 3 15°C 15°C 1012 90 %
03/05/2026 - 06:00:00 au 03/05/2026 - 09:00:00 214° (SW) 7 3 16°C 16°C 1014 81 %
03/05/2026 - 09:00:00 au 03/05/2026 - 12:00:00 233° (SW) 7 3 16°C 16°C 1013 76 %
03/05/2026 - 12:00:00 au 03/05/2026 - 15:00:00 276° (W) 6 2 16°C 16°C 1012 76 %
03/05/2026 - 15:00:00 au 03/05/2026 - 18:00:00 326° (NW) 7 3 16°C 16°C 1011 78 %
03/05/2026 - 18:00:00 au 03/05/2026 - 21:00:00 359° (N) 6 2 15°C 15°C 1012 85 %
03/05/2026 - 21:00:00 au 04/05/2026 - 00:00:00 026° (NNE) 6 2 14°C 14°C 1012 87 %
04/05/2026 - 00:00:00 au 04/05/2026 - 03:00:00 345° (NNW) 7 3 13°C 13°C 1012 88 %
04/05/2026 - 03:00:00 au 04/05/2026 - 06:00:00 360° (N) 7 3 13°C 13°C 1012 87 %
04/05/2026 - 06:00:00 au 04/05/2026 - 09:00:00 357° (N) 7 3 13°C 13°C 1013 86 %
04/05/2026 - 09:00:00 au 04/05/2026 - 12:00:00 306° (NW) 13 4 14°C 14°C 1013 86 %
04/05/2026 - 12:00:00 au 04/05/2026 - 15:00:00 300° (WNW) 10 3 13°C 13°C 1013 84 %
04/05/2026 - 15:00:00 au 04/05/2026 - 18:00:00 291° (WNW) 7 3 14°C 14°C 1013 79 %
04/05/2026 - 18:00:00 au 04/05/2026 - 21:00:00 305° (NW) 8 3 14°C 14°C 1014 79 %
04/05/2026 - 21:00:00 au 05/05/2026 - 00:00:00 289° (WNW) 8 3 13°C 13°C 1013 78 %
05/05/2026 - 00:00:00 au 05/05/2026 - 03:00:00 299° (WNW) 7 3 13°C 13°C 1012 78 %
05/05/2026 - 03:00:00 au 05/05/2026 - 06:00:00 287° (WNW) 5 2 13°C 13°C 1012 77 %
05/05/2026 - 06:00:00 au 05/05/2026 - 09:00:00 273° (W) 9 3 14°C 14°C 1013 74 %
05/05/2026 - 09:00:00 au 05/05/2026 - 12:00:00 257° (WSW) 14 4 15°C 15°C 1013 73 %
05/05/2026 - 12:00:00 au 05/05/2026 - 15:00:00 268° (W) 12 4 15°C 15°C 1012 72 %
05/05/2026 - 15:00:00 au 05/05/2026 - 18:00:00 281° (W) 9 3 14°C 14°C 1012 75 %
05/05/2026 - 18:00:00 au 05/05/2026 - 21:00:00 303° (WNW) 8 3 13°C 13°C 1012 81 %
05/05/2026 - 21:00:00 au 06/05/2026 - 00:00:00 312° (NW) 5 2 12°C 12°C 1011 84 %
06/05/2026 - 00:00:00 au 06/05/2026 - 03:00:00 339° (NNW) 3 1 12°C 12°C 1010 84 %
06/05/2026 - 03:00:00 au 06/05/2026 - 06:00:00 317° (NW) 3 1 12°C 12°C 1010 84 %
06/05/2026 - 06:00:00 au 06/05/2026 - 09:00:00 278° (W) 5 2 14°C 14°C 1010 76 %
06/05/2026 - 09:00:00 au 06/05/2026 - 12:00:00 263° (W) 9 3 14°C 14°C 1010 74 %
06/05/2026 - 12:00:00 au 06/05/2026 - 15:00:00 301° (WNW) 11 4 15°C 15°C 1009 77 %
06/05/2026 - 15:00:00 au 06/05/2026 - 18:00:00 298° (WNW) 13 4 14°C 14°C 1010 81 %
06/05/2026 - 18:00:00 au 06/05/2026 - 21:00:00 313° (NW) 15 4 13°C 13°C 1011 85 %
06/05/2026 - 21:00:00 au 07/05/2026 - 00:00:00 317° (NW) 13 4 13°C 13°C 1012 83 %
07/05/2026 - 00:00:00 au 07/05/2026 - 03:00:00 307° (NW) 9 3 13°C 13°C 1012 83 %
07/05/2026 - 03:00:00 au 07/05/2026 - 06:00:00 314° (NW) 6 2 13°C 13°C 1012 81 %
07/05/2026 - 06:00:00 au 07/05/2026 - 09:00:00 293° (WNW) 4 2 14°C 14°C 1013 74 %
07/05/2026 - 09:00:00 au 07/05/2026 - 12:00:00 281° (W) 6 2 15°C 15°C 1013 71 %
07/05/2026 - 12:00:00 au 07/05/2026 - 15:00:00 320° (NW) 6 2 15°C 15°C 1012 68 %
07/05/2026 - 15:00:00 au 07/05/2026 - 18:00:00 012° (NNE) 8 3 15°C 15°C 1012 70 %
07/05/2026 - 18:00:00 au 07/05/2026 - 21:00:00 042° (NE) 9 3 14°C 14°C 1013 76 %
openweathermap
Ces informations sont partiellement extraites de Wikipedia, et des sites pertinents pour cette zone. Compilation d'informations publiques
Votre Expert Maritime Plaisance se déplace sur Port de Bonne Anse, La Palmyre - Les Mathes, 17570, Charente-Maritime